Wind_Speed
4 1 2 4 9 10 7 10 5 16 14 12 2 2 7 7 8 9 11 14 14 14 15 21 26 27 28 28 29 25 27 30 25 19 14 9 25 28 24 23 21 18 16 12
2 6 7 8 11 10 13 14 16 19 21 6 6 8 8 8 9 10 12 13 14 14 15 19 24 26 27 29 29 27 27 25 25 24 20 19 17 27 26 21 19 17 13 11
2 0 4 6 1 0 6 9 12 15 15 9 6 8 6 6 7 10 11 12 13 14 14 20 23 24 24 25 28 28 28 26 21 29 27 28 24 20 25 22 20 19 16 13
2 2 1 1 5 1 8 7 11 8 5 9 12 10 8 6 8 9 10 10 11 13 17 21 23 24 23 27 28 28 29 31 31 30 29 28 23 28 25 24 24 21 18 16
2 1 5 4 5 5 4 4 7 8 4 11 13 14 11 9 10 10 8 9 12 16 17 20 23 24 23 27 27 28 28 30 32 30 27 26 29 27 27 28 28 27 24 22
2 2 4 2 11 11 8 4 8 8 5 6 8 2 3 7 10 10 13 13 14 17 18 20 23 23 22 24 25 27 27 27 27 29 28 35 27 23 26 28 28 28 29 28
3 2 3 8 13 8 3 4 8 7 6 6 5 7 8 9 11 13 13 14 16 17 18 21 19 19 22 22 24 24 26 27 29 28 29 28 30 31 24 29 29 26 30 31
3 4 4 13 3 5 5 4 6 6 7 14 12 12 10 9 9 11 12 15 17 15 17 20 23 19 20 22 21 23 25 28 28 28 27 27 28 27 28 30 28 24 25 28
2 2 3 4 5 5 7 5 6 7 10 13 10 8 7 7 8 10 13 14 15 15 16 22 22 22 20 21 22 23 26 28 28 27 28 28 29 28 27 27 22 22 22 23
3 2 3 5 7 8 9 8 9 10 11 10 10 8 8 6 6 10 13 14 15 17 17 19 22 23 20 20 20 22 23 23 23 24 27 28 28 28 28 25 23 21 18 19
3 4 5 7 6 6 7 8 10 10 10 10 9 8 7 6 7 11 13 16 17 15 16 18 21 21 20 19 19 19 20 20 20 21 21 24 29 25 26 27 24 22 20 19
2 1 3 4 5 6 7 8 8 9 11 11 11 8 9 8 12 13 15 18 20 20 21 21 22 24 22 19 16 17 17 17 17 18 18 18 18 27 29 24 23 22 21 23
3 6 9 8 7 8 9 9 10 11 11 9 11 11 11 9 12 13 14 18 19 18 18 20 21 22 21 21 19 18 15 14 14 14 14 14 16 17 16 20 26 25 23 22
5 6 6 3 5 8 10 12 13 13 12 11 10 10 10 10 10 11 12 11 14 17 19 19 19 20 18 17 16 17 17 14 14 15 15 15 14 14 15 17 18 21 21 21
5 2 7 11 10 9 10 8 7 7 8 10 9 8 8 9 9 8 8 10 11 15 18 20 20 19 17 16 16 16 15 13 12 11 13 13 13 14 15 15 15 14 13 14
8 8 9 9 8 7 7 6 6 5 6 6 7 7 8 10 11 12 14 15 14 16 16 19 19 18 14 12 12 13 13 11 9 9 9 10 10 10 11 11 14 14 14 12
8 6 7 10 8 7 5 5 6 7 8 8 7 8 9 10 11 13 13 12 14 15 16 17 18 16 14 12 10 11 12 10 7 6 7 8 8 9 8 9 12 14 15 13
4 6 6 8 9 8 6 7 8 8 7 7 8 10 10 10 8 7 10 7 6 12 17 18 15 14 13 13 10 10 11 10 7 6 4 5 7 7 8 9 9 10 11 11
10 11 12 12 11 12 10 9 9 11 11 10 10 12 10 8 8 6 6 8 12 13 15 16 17 14 13 12 11 10 10 8 7 6 4 3 3 4 5 6 7 7 7 7
12 13 15 14 12 13 13 13 13 11 9 9 11 9 9 8 6 5 5 8 10 9 11 14 15 13 11 11 12 11 10 9 7 5 3 2 0 2 3 4 4 4 4 5
9 12 14 15 16 14 13 11 12 12 10 6 7 7 5 3 5 6 4 7 8 9 10 12 13 12 10 10 11 11 10 9 8 7 5 3 1 2 3 3 3 3 2 2
13 13 15 15 16 13 11 9 8 8 8 8 7 5 3 3 5 7 8 6 7 9 8 10 13 11 9 9 10 10 9 8 8 7 7 7 5 3 2 3 4 4 3 4
15 16 14 13 12 11 9 7 6 6 6 4 3 3 3 4 6 6 8 9 7 8 8 8 10 11 9 8 8 9 9 8 7 6 7 7 7 6 5 4 4 4 4 5
15 14 12 11 11 9 7 6 5 3 2 1 2 2 4 4 4 5 5 6 6 7 7 8 8 9 9 10 10 10 9 9 8 7 7 8 8 7 7 6 6 6 6 6
15 14 13 11 8 6 5 5 4 2 2 3 4 6 9 9 9 7 6 6 7 9 9 9 10 11 11 11 12 12 11 11 10 11 11 10 8 7 7 8 8 9 10 10
13 12 13 10 6 4 4 4 2 4 5 6 6 6 8 9 12 13 11 8 9 11 13 14 15 16 16 17 17 16 16 15 14 13 13 12 12 12 12 12 11 11 11 11
10 10 9 6 4 2 3 4 3 2 1 1 1 6 9 9 9 7 9 10 13 15 15 13 13 14 16 17 19 20 19 19 18 18 17 16 15 13 13 14 14 14 13 11
Wind_Direction
229 171 168 217 262 268 224 242 223 272 252 263 291 23 53 32 16 31 5 8 3 359 358 1 359 357 1 4 5 8 26 29 26 32 65 95 149 156 156 157 156 155 154 149
276 241 236 257 246 232 238 255 253 255 263 281 104 106 69 46 26 22 15 6 4 4 1 3 1 358 1 5 7 16 28 28 34 48 52 56 53 129 134 137 137 134 124 120
260 98 296 275 260 123 301 304 275 251 249 146 142 99 73 62 48 34 23 10 9 5 3 2 0 2 5 8 14 20 24 28 34 55 56 46 45 81 111 112 117 108 103 101
246 287 307 57 67 304 314 355 344 339 331 149 129 106 85 52 64 41 32 13 14 9 8 7 7 9 15 22 24 24 26 28 33 47 53 57 42 48 68 87 86 88 87 86
120 267 304 202 35 345 345 315 13 338 93 123 131 116 68 60 63 54 33 17 17 14 14 16 18 13 20 31 27 26 26 30 31 45 53 63 58 56 61 66 71 73 72 72
154 182 248 357 322 316 281 236 18 354 325 180 186 139 84 65 60 50 43 27 18 15 20 19 20 25 26 32 34 28 21 30 39 44 47 56 55 58 66 73 75 75 71 69
240 276 305 350 316 303 224 3 22 2 359 76 78 67 86 64 55 47 42 31 26 24 27 23 22 29 33 29 32 36 45 46 49 54 53 63 66 64 58 67 67 65 69 69
187 216 270 0 351 39 313 43 37 42 55 80 77 70 64 54 46 36 33 28 26 26 24 24 27 31 34 35 38 50 53 52 52 55 60 63 66 66 67 68 64 57 62 62
21 101 11 25 26 30 23 40 37 58 59 73 77 65 60 54 44 33 30 27 30 30 26 26 26 31 33 31 44 49 53 51 51 57 59 61 65 61 55 60 58 60 64 64
175 98 61 40 57 50 50 54 59 60 68 74 83 69 59 43 38 38 34 35 31 33 31 25 31 38 34 37 47 49 47 44 49 50 58 63 62 64 65 59 56 54 56 63
76 122 115 62 64 64 67 66 66 61 62 66 71 55 60 54 46 42 39 38 42 41 34 26 35 41 42 42 45 50 53 51 50 52 54 62 63 58 65 66 71 67 68 70
179 53 81 66 77 83 75 76 76 80 74 67 71 68 63 54 48 45 40 44 42 39 40 37 41 41 39 41 45 53 52 52 52 60 62 61 67 70 66 71 72 76 83 84
130 85 96 95 86 83 82 75 73 79 83 86 77 79 69 64 58 58 49 50 49 46 42 42 43 42 41 42 44 48 53 46 51 60 66 65 76 78 71 74 78 71 71 73
126 121 113 161 123 111 103 95 92 85 79 79 80 79 81 78 67 59 47 50 48 50 45 40 42 40 39 43 46 52 55 57 62 67 74 78 77 79 83 83 71 71 70 67
158 51 102 107 103 102 105 111 102 92 89 78 71 75 70 65 54 44 53 50 56 50 44 40 38 34 41 42 40 44 48 51 55 64 73 75 77 81 86 86 80 73 69 66
115 108 131 128 128 126 123 114 111 113 102 99 97 89 91 94 89 78 68 59 59 48 38 38 35 31 37 43 40 39 38 43 47 53 60 60 60 68 77 84 81 72 64 58
128 128 121 139 142 141 121 94 99 112 106 100 103 114 110 102 89 68 56 58 56 51 41 35 27 26 30 35 38 37 33 35 45 57 61 58 55 68 78 90 88 80 72 64
112 104 120 139 139 132 118 101 104 107 104 116 119 112 106 98 91 70 43 47 48 45 38 30 22 16 22 29 31 32 32 36 44 53 61 67 74 81 87 98 98 92 86 80
95 102 105 109 115 116 116 117 119 121 123 120 115 106 101 89 77 73 43 45 40 30 21 17 13 13 22 27 26 27 28 32 34 48 60 75 93 101 104 107 108 101 94 89
88 94 102 103 116 127 124 127 125 116 114 123 120 118 105 93 83 73 58 45 31 27 16 7 6 11 18 22 24 26 24 20 28 31 25 41 181 176 153 135 120 112 107 102
103 112 114 115 108 112 114 124 129 120 119 123 134 124 105 71 48 42 39 28 24 15 8 8 10 15 18 20 19 18 16 15 13 15 21 23 37 156 188 191 191 178 174 167
125 119 119 119 117 113 123 126 123 122 123 121 117 114 93 45 26 23 20 13 10 3 2 3 10 11 15 18 19 18 17 16 14 14 17 22 10 330 253 233 227 224 227 238
128 128 128 131 131 126 122 122 121 120 120 101 76 68 39 13 10 356 3 7 357 355 358 353 360 9 10 5 2 5 8 11 8 5 0 350 339 325 313 303 292 280 278 273
135 137 134 132 127 124 117 119 115 117 117 54 33 346 329 334 335 351 336 334 339 342 351 354 346 346 349 347 346 342 339 338 339 333 329 329 334 310 296 288 289 289 284 276
146 142 139 141 139 135 135 151 158 191 281 291 303 310 304 297 278 292 314 315 313 317 316 315 317 320 318 317 315 318 319 320 319 318 313 309 315 315 306 298 295 291 277 270
152 155 162 163 154 170 187 189 236 325 317 303 338 343 346 324 283 270 279 283 296 299 304 309 303 299 299 298 297 296 296 297 296 298 301 299 295 296 299 301 300 305 297 281
157 160 167 186 214 203 165 188 208 301 291 326 19 5 355 350 349 316 288 286 298 301 305 316 325 322 315 313 306 287 284 287 287 284 285 287 284 285 290 292 291 292 288 286
Height
756 757 760 760 760 758 765 759 775 741 740 730 730 740 749 754 755 749 752 747 742 736 732 727 720 715 708 701 691 686 676 670 672 670 664 667 668 674 680 686 690 694 698 702
761 757 759 756 754 756 754 751 747 739 735 730 739 745 752 756 757 756 755 754 749 743 738 733 728 721 714 707 699 691 685 685 681 674 674 673 669 671 678 687 690 692 697 700
765 754 752 748 739 743 746 740 734 734 725 732 748 752 757 758 759 759 759 757 754 749 745 740 736 731 723 716 708 701 696 692 690 684 685 680 682 678 683 690 693 693 698 702
771 758 776 741 745 747 748 739 744 732 723 728 749 758 761 762 759 761 762 762 760 756 750 746 741 737 731 723 717 711 706 699 694 691 691 685 700 690 692 692 695 699 704 705
785 774 750 743 753 759 753 743 751 745 743 748 755 757 763 765 764 764 766 766 764 760 757 752 747 742 736 730 726 721 717 712 708 703 705 705 698 701 700 701 703 706 710 711
766 781 781 765 759 754 755 743 758 756 750 749 751 739 766 769 768 770 771 771 767 764 760 756 752 748 744 738 735 733 729 725 721 717 713 704 711 713 710 712 713 715 716 716
769 770 764 768 759 753 744 761 763 762 757 748 756 760 769 771 773 775 776 774 771 768 766 762 759 756 751 748 743 743 740 736 731 728 726 723 721 719 722 719 721 724 723 725
755 761 762 769 757 762 770 769 768 769 768 764 768 773 777 779 781 781 779 778 776 774 771 768 765 761 758 754 754 750 746 742 740 737 734 734 731 733 732 728 730 734 734 732
767 775 775 777 775 777 775 773 773 773 773 773 778 784 785 787 787 786 785 784 782 779 777 773 769 766 764 762 758 755 751 749 747 744 742 741 738 739 738 739 742 743 743 744
769 775 777 777 779 779 779 780 780 780 781 784 786 790 792 793 792 790 789 788 786 783 782 780 776 773 772 769 765 761 760 759 758 756 754 752 750 750 747 749 751 753 755 755
773 777 779 780 781 783 784 785 785 786 787 788 789 793 795 796 796 796 795 792 791 790 788 786 783 780 778 774 772 770 769 769 769 765 764 761 760 761 758 759 761 762 763 764
782 779 778 784 784 786 787 788 790 790 792 796 796 798 800 801 800 798 797 796 795 794 792 790 787 784 781 779 778 776 776 775 775 773 772 770 770 768 768 769 770 769 771 769
784 782 783 787 789 790 791 793 794 794 797 798 801 802 803 804 803 803 802 800 800 800 798 795 792 789 787 786 783 781 780 780 780 778 777 776 775 775 775 777 776 777 777 777
782 783 787 788 791 793 794 796 798 800 801 802 804 805 806 806 807 806 806 806 805 803 801 800 797 795 793 792 790 788 787 786 786 784 782 782 782 782 780 780 781 781 781 781
782 784 784 790 793 796 798 800 801 803 804 805 807 808 809 810 811 812 811 811 809 808 807 805 802 800 796 796 794 792 791 790 789 788 787 787 786 786 786 786 786 785 785 785
784 786 789 791 796 798 800 802 803 806 807 810 812 813 815 816 816 817 815 814 813 812 811 809 807 804 801 800 799 797 795 793 792 791 790 790 790 789 789 789 789 790 790 790
786 789 790 794 796 800 802 804 805 808 811 813 815 816 817 817 818 818 816 817 817 815 814 811 809 808 805 803 801 800 798 796 795 794 794 793 793 793 793 793 793 793 794 794
784 785 789 793 797 801 806 807 809 811 813 815 816 816 818 819 820 820 820 819 819 816 815 813 812 810 807 805 803 802 800 799 798 798 797 797 797 797 797 797 797 797 798 798
787 789 793 797 800 804 808 810 812 814 816 817 817 818 820 820 821 820 821 820 818 817 816 815 813 811 809 807 806 804 803 802 802 801 800 800 800 800 800 800 800 801 801 801
793 796 798 801 804 806 810 812 814 815 817 818 819 820 821 821 822 822 822 821 820 820 819 817 815 813 811 810 808 807 806 805 804 804 803 802 802 802 803 803 803 803 804 804
799 801 803 805 807 810 811 814 815 817 818 820 821 821 822 823 823 822 822 822 822 821 820 819 817 815 813 812 811 809 808 807 806 805 805 804 804 804 804 804 804 805 805 806
801 803 805 807 809 812 814 816 817 819 820 821 822 823 824 824 824 823 823 823 823 822 821 820 818 816 815 814 813 812 811 809 808 807 806 806 806 805 805 805 805 805 805 806
801 804 807 810 812 814 816 818 819 821 822 823 824 824 824 824 824 824 824 824 823 822 821 820 819 818 816 815 815 813 812 811 810 809 809 808 807 806 805 805 805 805 805 805
803 806 809 812 814 816 818 820 821 822 823 823 824 824 824 824 825 824 824 824 823 822 821 820 819 818 817 816 815 814 813 812 811 810 809 808 806 805 804 804 804 804 803 803
805 809 811 814 816 818 819 820 821 822 823 823 823 824 823 823 823 823 823 822 822 822 821 820 819 818 816 815 814 813 812 810 809 808 807 806 805 804 803 803 802 802 801 801
807 810 812 814 816 818 819 819 820 821 821 821 822 821 821 820 819 820 820 820 820 819 819 818 817 815 814 812 811 810 808 808 807 805 804 803 803 802 801 800 800 799 798 798
808 810 813 815 815 816 817 818 819 820 821 821 821 821 820 819 818 817 817 818 817 816 815 814 813 811 810 808 806 804 803 803 802 801 800 800 799 798 797 797 796 796 795 795